Other Public Products
Issued by NWS Grand Forks, ND

Home | Current Version | Previous Version | Graphics & Text | Print | Product List | Glossary On
Versions: 1 2 3 4 5 6 7 8 9 10 11 12 13 14 15 16 17 18 19 20 21 22 23 24 25 26 27 28 29 30 31 32 33 34 35 36 37 38 39 40 41 42 43 44 45 46 47 48 49 50
000
FPUS83 KFGF 171010
OPUFGF
PRAIRIE TO PINES WEATHER ROUNDUP
NATIONAL WEATHER SERVICE EASTERN NORTH DAKOTA/GRAND FORKS ND
400 AM CST WED DEC 17 2014

 **SATELLITE DATA USED TO AUGMENT SKY COVER AT AUTOMATED STATIONS**
 *****  WEATHER ACROSS EASTERN NORTH DAKOTA  *****

CITY           SKY/WX    TMP DP  RH WIND       PRES   REMARKS
GRAND FORKS    PTCLDY     2  -2  83 NW5       30.38S WCI  -8
GRAND FORKS AF PTCLDY     2   1  94 N5        30.38S WCI  -7
GRAND CITY NWS NOT AVBL
BUXTON         NOT AVBL
DEVILS LAKE    PTCLDY     0 -13  55 CALM      30.31F
FARGO          PTCLDY     5   0  79 NW8       30.36F WCI  -8
WAHPETON ARPT  MOSUNNY    5   1  85 NW3       30.36S
$$

 *****  WEATHER ACROSS CENTRAL AND WESTERN NORTH DAKOTA  *****

CITY           SKY/WX    TMP DP  RH WIND       PRES   REMARKS
JAMESTOWN      PTCLDY     0  -5  79 NW6       30.32F WCI -12
BISMARCK       FLURRIES  14  10  84 SE6       30.30F WCI   5
MINOT          CLOUDY    13   8  81 SE5       30.27F WCI   5
MINOT AFB      CLOUDY    11  10  98 SE6       30.27F WCI   1
GARRISON         N/A     15  11  83 SE9       30.24F WCI   3
WILLISTON      CLOUDY    20  14  77 SE8       30.19S WCI  10
DICKINSON      CLOUDY    17  12  80 SE15      30.15S WCI   2
HETTINGER      CLOUDY    16  13  88 SE14      30.16F WCI   2
$$

 *****  OTHER OBSERVATIONS NORTHEAST NORTH DAKOTA  *****

CITY           SKY/WX    TMP DP  RH WIND       PRES   REMARKS
WALHALLA         N/A     -2  -4  92 W3        30.39S
LANGDON        FAIR      -4  -9  77 CALM      30.31F
CAVALIER       FAIR       3   0  85 NW3       30.39S
GRAFTON        NOT AVBL
CANDO          CLOUDY    -2  -8  78 CALM      30.34S
FORT TOTTEN      N/A      0  -5  80 CALM      29.95S
ROLLA          FAIR      -4  -9  77 SW5       30.30F WCI -15
RUGBY          FAIR       0  -2  92 E7        30.31F WCI -13
 ***** THE ABOVE OBSERVATIONS ARE NON NWS ARE NOT QUALITY
        CONTROLLED AND MAY MIS-REPORT RAIN FOR SNOW...
$$

 *****  OTHER OBSERVATIONS SOUTHEAST NORTH DAKOTA *****

CITY           SKY/WX    TMP DP  RH WIND       PRES   REMARKS
COOPERSTOWN    NOT AVBL
VALLEY CITY    FAIR       1   1 100 NW7       30.33F WCI -11
OAKES            N/A      5   3  92 NW3       30.33F
GWINNER        SUNNY      7   3  85 MISG      30.35F
SHEYENNE NWR     N/A     -1  -6  80 W2        29.95S
BUFFALO        NOT AVBL
WYNDMERE       NOT AVBL
 ***** THE ABOVE OBSERVATIONS ARE NON NWS ARE NOT QUALITY
       CONTROLLED AND MAY MIS-REPORT RAIN FOR SNOW...
$$

  *****  WEATHER ACROSS NORTHERN MINNESOTA  *****

CITY           SKY/WX    TMP DP  RH WIND       PRES   REMARKS
FLAG ISLAND    CLOUDY     9   7  92 N8        30.32S WCI  -4
WARROAD        MOCLDY     3   0  85 NW6       30.33S WCI  -8
ROSEAU         PTCLDY     3  -2  78 CALM      30.34F
HALLOCK        PTCLDY     1  -2  85 CALM      30.38S
THF RVR FALLS  PTCLDY     3   0  85 NW6       30.34S WCI  -8
HALSTAD          N/A      2  -2  81 N6          N/A  WCI  -9
FOSSTON        PTCLDY     1  -2  85 CALM      30.32S
BAUDETTE       CLOUDY    11   7  84 NW10      30.29F WCI  -3
WASKISH        CLOUDY    10   9  92 CALM      30.29S
CROOKSTON      MOCLDY     3   0  85 N7        30.38S WCI  -9
$$
  *****  WEATHER ACROSS CENTRAL AND WEST MINNESOTA  *****

CITY           SKY/WX    TMP DP  RH WIND       PRES   REMARKS
BEMIDJI        FLURRIES  10   8  89 NW7       30.27S WCI  -1
PARK RAPIDS    MOCLDY     6   2  83 NW6       30.26S WCI  -4
WADENA         FLURRIES   9   5  85 NW6       30.28S WCI  -1
DETROIT LAKES  PTCLDY     3   1  92 N6        30.31R WCI  -8
MOORHEAD       MIX PCPN   3   3 100 N3        30.37S
FERGUS FALLS   PTCLDY     3   0  85 N5        30.36S WCI  -6
ELBOW LAKE     FAIR       2  -1  88 NW5       30.32R WCI  -8
MORRIS MN      LGT SNOW   7   5  92 NW13      30.32S WCI  -9
STAPLES        CLOUDY     9   7  92 W7        30.27S WCI  -3
WHEATON        FLURRIES   3   1  92 W8        30.37F WCI -10
$$
  *****  WEATHER ELSEWHERE ACROSS MINNESOTA  *****

CITY           SKY/WX    TMP DP  RH WIND       PRES   REMARKS
DULUTH         LGT SNOW  12   7  80 NW10      30.17S WCI  -1
INTRNTL FALLS  CLOUDY    12   7  80 N7        30.26S WCI   1
ELY            LGT SNOW  10   7  85 NW6       30.18S WCI   1
CLOQUET        LGT SNOW  12   9  85 NW9       30.20S WCI   0
BRAINERD       CLOUDY    11   7  84 NW7       30.27R WCI   0
HIBBING        CLOUDY    11   5  77 NW10      30.21S WCI  -3
ALEXANDRIA     PTCLDY     7   4  87 NW7       30.28S WCI  -5
SAINT CLOUD    PTCLDY    10   4  76 NW8       30.28S WCI  -2
MINNEAPOLIS    PTCLDY    10   6  84 NW8       30.28S WCI  -2
$$

  *****  WEATHER ACROSS SOUTH DAKOTA  *****

CITY           SKY/WX    TMP DP  RH WIND       PRES   REMARKS
SIOUX FALLS    MOCLDY     6   2  83 W5        30.33F WCI  -3
BROOKINGS      NOT AVBL
WATERTOWN      PTCLDY     3  -1  83 CALM      30.29F
HURON          CLOUDY     0  -4  83 CALM      30.35S
SISSETON         N/A      3   1  91 N6        30.33F WCI  -8
ABERDEEN       PTCLDY     6   2  83 N3        30.35F
MITCHELL       MOCLDY     7   3  84 CALM      30.35F
PIERRE         CLOUDY    17  14  88 E7        30.27F WCI   8
MOBRIDGE       CLOUDY    17  11  77 SE7       30.26F WCI   8
RAPID CITY     CLOUDY    18  16  92 SE10      30.07F WCI   6
$$

  *****  SOME WEATHER IN NEARBY STATES *****

CITY           SKY/WX    TMP DP  RH WIND       PRES   REMARKS
GLASGOW MT     CLOUDY    18  14  84 E15       30.09F WCI   4
GREAT FALLS MT CLOUDY    23  22  96 CALM      29.91S
CHEYENNE WY    MOCLDY    30  22  72 CALM      29.95F
SCOTTSBLUFF NE PTCLDY    16  14  92 E10       30.02F WCI   4
OMAHA NE       MOCLDY    18  12  77 N6        30.38S WCI  10
DES MOINES IA  FLURRIES  17  10  74 NW10      30.35S WCI   5
DAVENPORT IA   CLOUDY    21  14  74 NW12      30.28S WCI   9
CHICAGO IL     CLOUDY    26  20  77 NW8       30.17R WCI  18
EAU CLAIRE WI  CLOUDY    19  11  70 NW12      30.21S WCI   7
LA CROSSE WI   CLOUDY    22  14  71 NW13      30.24S WCI  10
$$

  *****  SOME NATIONAL WEATHER *****

CITY           SKY/WX    TMP DP  RH WIND       PRES   REMARKS
LA GUARDIA NY  CLOUDY    44  42  93 NW5       29.81S
RALEIGH NC     CLEAR     45  37  73 W7        30.04R
ATLANTA GA     CLEAR     39  35  86 W6        30.16R
NEW ORLEANS LA CLEAR     49  38  65 NE12      30.24F
OKLAHOMA CITY  CLOUDY    39  28  64 SE6       30.26F
ALBUQUERQUE NM CLOUDY    34  27  75 CALM      30.05R
SALT LAKE CITY CLOUDY    33  30  88 CALM      29.99S
LOS ANGELES CA CLOUDY    54  52  93 CALM      29.97S
BOISE ID       CLEAR     31  29  92 CALM      29.98R
SEATTLE WA     CLOUDY    48  31  51 SE3       29.80S
$$

*** WEATHER ACROSS MANITOBA...SASKATCHEWAN AND ONTARIO ***
                ***ONTARIO***

CITY           SKY/WX    TMP DP  RH WIND       PRES   REMARKS
GERALDTON      CLEAR      3   0  85 N8        30.16R WCI -10
THUNDER BAY    FLURRIES  18  12  79 N6        30.18R WCI   9
SIOUX LOOKOUT  CRYSTALS   5   1  85 NE6       30.29S WCI  -6
TORONTO        CLOUDY    41  37  87 W13       29.76S
BIG TROUT LK   CLEAR    -15 -20  76 SW3       30.35S
PICKLE LAKE    NOT AVBL
DRYDEN         CLOUDY     9   7  92 N7        30.27S WCI  -3
KENORA         NOT AVBL
$$
                *** MANITOBA***

CITY           SKY/WX    TMP DP  RH WIND       PRES   REMARKS
BRANDON        CLEAR     -6 -11  77 CALM      30.34F
DAUPHIN        CLEAR      5   3  92 S2        30.35S
ISLAND LAKE    MOCLDY     1  -2  85 SW2       30.35S
PILOT MOUND      N/A     -8 -11  84 S1          N/A
THE PAS        CLOUDY    18  14  86 S6        30.25F WCI   9
THOMPSON       FLURRIES  16  12  86 SW14      30.22F WCI   1
WINNIPEG       NOT AVBL
LYNN LAKE      FLURRIES  12  10  92 SW7       30.12F WCI   2
CHURCHILL      CLEAR      3   1  92 SW6       30.13S WCI  -8
GILLAM         FLURRIES  12   9  85 W12       30.20F WCI  -2
$$
                ***SASKATCHEWAN***

CITY           SKY/WX    TMP DP  RH WIND       PRES   REMARKS
ESTEVAN        FLURRIES  18  12  79 SE10      30.20F WCI   6
KINDERSLEY     CLOUDY    19  18  93 SE13      29.99F WCI   7
LLOYDMINSTER   CLOUDY    18  16  93 S15       29.98F WCI   3
PRINCE ALBERT  CLOUDY    19  16  86 S7        30.16F WCI  10
REGINA         CLOUDY    18  14  86 S14       30.16F WCI   4



USA.gov is the U.S. government's official web portal to all federal, state and local government web resources and services.